This is the latest recevied weather packets stored in our database for station/object 9W3FAB-1. If no packets are shown the sender has not sent any weather packets the latest 10 day(s).
| Time | Temp. | Humidity | Pressure | Rain* | Wind** | Luminosity | Snow |
|---|---|---|---|---|---|---|---|
| 1777623407 | 30° C | 100% | 1004.2 hPa | - | - | - | - |
| 1777622506 | 30° C | 100% | 1004.1 hPa | - | - | - | - |
| 1777621605 | 30.56° C | 100% | 1004.4 hPa | - | - | - | - |
| 1777620705 | 30.56° C | 100% | 1004.7 hPa | - | - | - | - |
| 1777619804 | 31.11° C | 100% | 1004.7 hPa | - | - | - | - |
| 1777618903 | 31.67° C | 100% | 1004.9 hPa | - | - | - | - |
| 1777618002 | 31.11° C | 100% | 1005.1 hPa | - | - | - | - |
| 1777617101 | 31.11° C | 100% | 1005.3 hPa | - | - | - | - |
| 1777616199 | 31.11° C | 100% | 1005.7 hPa | - | - | - | - |
| 1777615298 | 30.56° C | 100% | 1006.2 hPa | - | - | - | - |
| 1777614398 | 30.56° C | 100% | 1006.4 hPa | - | - | - | - |
| 1777613497 | 30.56° C | 100% | 1006.8 hPa | - | - | - | - |
| 1777612596 | 30.56° C | 100% | 1007.2 hPa | - | - | - | - |
| 1777611695 | 30.56° C | 100% | 1007.4 hPa | - | - | - | - |
| 1777610794 | 31.11° C | 100% | 1007.6 hPa | - | - | - | - |
| 1777609894 | 30° C | 100% | 1008 hPa | - | - | - | - |
| 1777608993 | 30.56° C | 100% | 1008.2 hPa | - | - | - | - |
| 1777608092 | 30° C | 100% | 1008.2 hPa | - | - | - | - |
| 1777607191 | 29.44° C | 100% | 1008.5 hPa | - | - | - | - |
| 1777606290 | 28.89° C | 100% | 1008.8 hPa | - | - | - | - |
| 1777605389 | 28.89° C | 100% | 1009.1 hPa | - | - | - | - |
| 1777604488 | 28.89° C | 100% | 1009.2 hPa | - | - | - | - |
| 1777603587 | 28.33° C | 100% | 1009.6 hPa | - | - | - | - |
| 1777602687 | 28.33° C | 100% | 1009.6 hPa | - | - | - | - |
| 1777601791 | 28.33° C | 100% | 1009.7 hPa | - | - | - | - |
* Rain since midnight (hover to see other rain measurements)
** Current wind speed in m/s (hover to see current wind gust speed)